Home   Weather   Kalispell   Past weeks
Flag for USA

Past Weather in Kalispell, Montana, USA — Yesterday and Last 2 Weeks

Now
59 °F

Mostly cloudy.


Feels Like: 56 °F
Forecast: 57 / 50 °F
Wind: 14 mph from North

Location: Kalispell - Glacier Park International

Current Time: May 26, 2019 at 3:26:54 pm

Latest Report: May 26, 2019 at 2:55 pm


Visibility: 10 mi

Pressure: 29.96 "Hg (26.92 "Hg at 902m altitude)

Humidity: 49%

Dew Point: 40 °F

Location of KalispellLocation

Past Weather in Kalispell — Graph

°F

Kalispell Temperature Yesterday

Maximum temperature yesterday: 65 °F (at 4:55 pm)
Minimum temperature yesterday: 49 °F (at 2:55 am)
Average temperature yesterday: 56 °F

High & Low Weather Summary for the Past Weeks

 TemperatureHumidityPressure
High80 °F (May 13, 2:55 pm)97% (May 25, 6:55 am)30.09 "Hg (May 25, 6:55 am)
Low38 °F (May 24, 2:55 am)14% (May 13, 3:55 pm)29.57 "Hg (May 16, 5:55 pm)
Average55 °F55%29.83 "Hg
* Reported May 11 1:55 pm — May 26 1:55 pm, Kalispell. Weather by CustomWeather, © 2019

Note: Actual official high and low records may vary slightly from our data, if they occured in-between our weather recording intervals... More about our weather records

Advertising

Kalispell Weather History for the Previous 24 Hours

Scroll right to see more
 ConditionsComfort  
Time TempWeatherWind HumidityBarometerVisibility
1:55 pm
Sun, May 26
57 °FMostly cloudy.3 mph64%29.98 "Hg10 mi
12:55 pm54 °FLight rain. Mostly cloudy.6 mph72%29.99 "Hg9 mi
11:55 am51 °FRain. Overcast.8 mph71%29.99 "Hg6 mi
10:55 am52 °FLight rain. Overcast.13 mph66%29.97 "Hg10 mi
9:55 am54 °FMostly cloudy.12 mph55%29.96 "Hg10 mi
8:55 am54 °FOvercast.12 mph57%29.94 "Hg10 mi
7:55 am54 °FOvercast.12 mph59%29.92 "Hg10 mi
6:55 am53 °FOvercast.15 mph61%29.90 "Hg10 mi
5:55 am54 °FMostly cloudy.14 mph57%29.89 "Hg10 mi
4:55 am55 °FMostly cloudy.15 mph53%29.88 "Hg10 mi
3:55 am55 °FPassing clouds.16 mph53%29.87 "Hg10 mi
2:55 am56 °FMostly cloudy.17 mph51%29.88 "Hg10 mi
1:55 am56 °FMostly cloudy.17 mph51%29.86 "Hg10 mi
12:55 am56 °FOvercast.17 mph53%29.86 "Hg10 mi
11:55 pm
Sat, May 25
57 °FOvercast.15 mph51%29.85 "Hg10 mi
10:55 pm58 °FPassing clouds.22 mph51%29.87 "Hg10 mi
9:55 pm59 °FOvercast.18 mph48%29.87 "Hg10 mi
8:55 pm61 °FOvercast.23 mph46%29.84 "Hg10 mi
7:55 pm62 °FMostly cloudy.17 mph48%29.83 "Hg10 mi
6:55 pm64 °FPartly sunny.18 mph47%29.82 "Hg10 mi
5:55 pm63 °FSunny.13 mph50%29.83 "Hg10 mi
4:55 pm65 °FSunny.14 mph49%29.83 "Hg10 mi
3:55 pm62 °FPassing clouds.9 mph54%29.85 "Hg10 mi
Weather by CustomWeather, © 2019

See weather overview